OBJECT XM, 65733

Orbit data source: Space-Track

You're viewing an Uncataloged Satellite

Recently launched and/or uncataloged satellites may have evolving metadata. Metadata may include but not limited to: Owner, Maufacturer, Bus, Motor, and Mission.

OBJECT XM, 65733 is a Japanese satellite in LEO that was delivered to and deployed from the ISS. Unknown objects in Earth's orbit typically refer to objects detected orbiting the Earth but have not yet been identified or cataloged. These objects could be anything from previously untracked satellites, spent rocket stages, debris from satellite collisions, or even natural meteoroids temporarily captured by Earth's gravity.

Loading next visibility...
Identifier
65733, 1998-067XM
Orbit
LEO
Country
Flag of JPJP / JPN
Related business
Manufacturer
GIDAI
Mission
Operational spacecraft
Bus & Motor
CUBESAT 2U, Unknown motor
Mass
2 kg wet, 2 kg dry
Launch date (UTC)
1998-11-20 (27 years ago)
Launch vehicle
FALCON 9
Launch site
Tyuratam Missile And Space Complex (TTMTR)
Object type
Unknown
Shape & HBR
Unknown shape, 0.1 m
Radar Cross Section
RCS unknown

Expand to show TLE details & history
Last TLE update: 1 day ago

TLE from 1 day ago
0 OBJECT XM
1 65733U 98067XM  25349.10064835  .00167711  00000-0  10424-2 0  9990
2 65733  51.6273 123.0490 0007439 297.3204  62.7038 15.75909200 13557
Epoch: 2025-12-15T02:24Z
TLE epoch observation values (Epoch: 2025-12-15T02:24:56.017Z)
Latitude
-0.00002°
Longitude
2.81152°
Altitude
340.504 km
Speed
7.707 km/s
True Right ascension
08h 12m 11s
True Declination
0° 00' 00"
Sunlit
Object was in full shadow at epoch
Visualization orbit readout
Latitude
Unknown
Longitude
Unknown
Altitude
Unknown
Speed
Unknown
Apparent Right ascension
Unknown
Apparent Declination
Unknown
Sunlit
N/A
Visualization observer readout
Local Sidereal Time
01:17:05
Azimuth
Unknown
Elevation
Unknown
Doppler factor
Unknown
Orbital elements
Apogee altitude
347.56 km
Perigee altitude
337.561 km
Semi-major axis
6,720.698 km
Eccentricity
0.00074
Inclination
51.6273°
RAAN
123.049°
Arg. of periapsis
297.3204°
True anomaly
62.77958°
Mean anomaly
62.7038°
Eccentric anomaly
62.74169°
Mean motion
3.93932 °/min
Orbital period
91.39 mins
BSTAR
0.0010424
Loading maneuver chart data...
Computing Atmospheric mass density...

Documentation

Showing up to 5 results
|